Location: Chequamegon National Forest
(46.1070°N, 90.8420°W)
Time: 15:58:32
(UTC-05:00)

ISS - All Passes

Search period start: 26 April 2015 00:00
Search period end: 06 May 2015 00:00
Orbit: 395 x 402 km, 51.6° (Epoch: 26 April)

Date Brightness Start Highest point End Pass type
(mag) Time Alt. Az. Time Alt. Az. Time Alt. Az.
26 Apr - 11:30:36 10° S 11:32:29 15° SE 11:34:27 10° E daylight
26 Apr - 13:05:12 10° WSW 13:08:28 89° SSE 13:11:45 10° ENE daylight
26 Apr - 14:42:06 10° WNW 14:45:05 32° N 14:48:06 10° ENE daylight
26 Apr - 16:18:56 10° WNW 16:21:58 34° N 16:25:01 10° E daylight
26 Apr - 17:55:16 10° WNW 17:58:32 72° SSW 18:01:47 10° SE daylight
26 Apr - 19:33:12 10° WSW 19:34:25 11° SW 19:35:32 10° SSW daylight
27 Apr - 12:11:12 10° SW 12:14:21 51° SSE 12:17:33 10° ENE daylight
27 Apr - 13:47:42 10° W 13:50:48 39° NNW 13:53:54 10° ENE daylight
27 Apr - 15:24:43 10° WNW 15:27:40 30° N 15:30:37 10° ENE daylight
27 Apr - 17:01:06 10° WNW 17:04:22 69° NNE 17:07:38 10° ESE daylight
27 Apr - 18:37:57 10° W 18:40:28 21° SW 18:42:58 10° S daylight
28 Apr - 11:17:26 10° SSW 11:20:17 28° SE 11:23:10 10° E daylight
28 Apr - 12:53:18 10° W 12:56:30 54° NNW 12:59:44 10° ENE daylight
28 Apr - 14:30:22 10° WNW 14:33:17 29° N 14:36:13 10° ENE daylight
28 Apr - 16:06:56 10° WNW 16:10:07 46° NNE 16:13:17 10° E daylight
28 Apr - 17:43:23 10° WNW 17:46:26 37° SW 17:49:28 10° SSE daylight
29 Apr - 10:24:10 10° S 10:26:14 16° SE 10:28:22 10° E daylight
29 Apr - 11:58:59 10° WSW 12:02:14 85° NNW 12:05:31 10° ENE daylight
29 Apr - 13:35:54 10° WNW 13:38:53 31° N 13:41:52 10° ENE daylight
29 Apr - 15:12:42 10° WNW 15:15:45 35° NNE 15:18:48 10° E daylight
29 Apr - 16:49:02 10° WNW 16:52:16 67° SSW 16:55:30 10° SE daylight
29 Apr - 18:27:25 10° WSW 18:28:07 10° SW 18:28:43 10° SW daylight
30 Apr - 11:04:48 10° SW 11:07:59 56° SSE 11:11:12 10° ENE daylight
30 Apr - 12:41:22 10° W 12:44:27 38° NNW 12:47:31 10° NE daylight
30 Apr - 14:18:21 10° WNW 14:21:18 30° N 14:24:16 10° ENE daylight
30 Apr - 15:54:43 10° WNW 15:58:00 74° NNE 16:01:15 10° ESE daylight
30 Apr - 17:31:38 10° W 17:34:03 19° SW 17:36:25 10° S daylight
01 May - 10:10:53 10° SSW 10:13:46 31° SE 10:16:42 10° ENE daylight
01 May - 11:46:50 10° W 11:50:01 51° NNW 11:53:13 10° ENE daylight
01 May - 13:23:53 10° WNW 13:26:48 29° N 13:29:43 10° ENE daylight
01 May - 15:00:25 10° WNW 15:03:36 48° NNE 15:06:47 10° E daylight
01 May - 16:36:53 10° WNW 16:39:53 34° SW 16:42:52 10° SSE daylight
02 May - 09:17:23 10° S 09:19:35 17° SE 09:21:51 10° E daylight
02 May - 10:52:21 10° WSW 10:55:36 80° NNW 10:58:52 10° ENE daylight
02 May - 12:29:18 10° WNW 12:32:15 31° N 12:35:13 10° ENE daylight
02 May - 14:06:03 10° WNW 14:09:07 36° NNE 14:12:11 10° E daylight
02 May - 15:42:23 10° WNW 15:45:36 62° SSW 15:48:49 10° SE daylight
03 May - 09:58:02 10° SW 10:01:13 60° SSE 10:04:26 10° ENE daylight
03 May - 11:34:38 10° W 11:37:41 36° NNW 11:40:46 10° ENE daylight
03 May - 13:11:36 10° WNW 13:14:32 31° N 13:17:30 10° ENE daylight
03 May - 14:47:57 10° WNW 14:51:12 78° NNE 14:54:27 10° ESE daylight
03 May - 16:24:56 10° W 16:27:13 18° SW 16:29:28 10° S daylight
04 May - 09:03:55 10° SSW 09:06:51 33° SE 09:09:50 10° ENE daylight
04 May - 10:39:58 10° W 10:43:07 49° NNW 10:46:18 10° ENE daylight
04 May - 12:17:00 10° WNW 12:19:54 29° N 12:22:49 10° ENE daylight
04 May - 13:53:30 10° WNW 13:56:41 50° NNE 13:59:52 10° E daylight
04 May - 15:29:59 10° WNW 15:32:56 31° SW 15:35:51 10° SSE daylight
05 May - 08:10:13 10° S 08:12:32 19° SE 08:14:54 10° E daylight
05 May - 09:45:20 10° WSW 09:48:34 75° NNW 09:51:49 10° ENE daylight
05 May - 11:22:17 10° WNW 11:25:14 30° N 11:28:11 10° ENE daylight
05 May - 12:59:01 10° NW 13:02:04 37° NNE 13:05:09 10° E daylight
05 May - 14:35:19 10° WNW 14:38:32 57° SSW 14:41:43 10° SE daylight
